User: anonymous   Login
Location: Mississauga
(43.5802°N, 79.6166°W)
Time: 05:36:57
(UTC-05:00)
Language:

Cosmos 1437 Rocket - Orbit

View from above orbital plane
View from above orbital plane
View from above satellite
View from above satellite

Ground track
Ground track

The orbit data is extracted from the following two-line orbital elements,

1 13771U 83003B   18021.35702366 -.00000308 +00000-0 -20031-4 0  9990
2 13771 081.1705 111.6173 0042641 005.0519 355.1127 15.10116269906719
Epoch (UTC): 21 January 2018 08:34:06
Eccentricity: 0.0042641
inclination: 81.1705°
perigee height: 506 km
apogee height: 565 km
right ascension of ascending node: 111.6173°
argument of perigee: 5.0519°
revolutions per day: 15.10116269
mean anomaly at epoch: 355.1127°
orbit number at epoch: 90671

The dashed part of the orbit path shows where the satellite is in the earth's shadow,  

DLR